Погода в Большой Речке

Россия / Республика Бурятия     51°58′11″N   106°19′34″E
темп.,
°C
ветер,
м/с
пор.,
м/с
влажн.,
%
обл.,
%
осадки,
мм/ч
давл.,
гПа
погр.,
м
14 мая, пт
пт1423:000юз34718 0.0 101854
02:000ююз357392 0.0 101997
05:000юз467799 0.0 1020150
08:00+3зюз576068 0.0 1020380
11:00+7зюз66495 0.0 1019735
14:00+9зюз67405 0.0 1017784
17:00+10зюз56380 0.0 1016562
20:00+7ююз22460 0.0 101617
15 мая, сб
сб1523:00+5юв32520 0.0 101719
02:00+3юв11570 0.0 101615
05:00+2ю01624 0.0 101611
08:00+6з57535 0.0 1018324
11:00+8зюз911635 0.0 1020702
14:00+10зюз8954100 0.0 1019695
17:00+10зюз6851100 0.0 1017556
20:00+8юз3560100 0.0 101669
16 мая, вс
вс1623:00+7ююз345598 0.0 101654
02:00+6ююз3363100 0.0 101839
05:00+6ююз476565 0.0 1016125
08:00+11юз2459100 0.0 1014183
11:00+13зсз455499 0.0 1013428
14:00+12сз4753100 0.0 1013485
17:00+12ссз41169100 0.0 1013765
20:00+10зюз117897 0.0 101315
17 мая, пн
пн1723:00+8ююв228454 0.0 101114
02:00+8юв2285100 0.0 100717
05:00+6ю228780 0.0 100418
08:00+12зюз476396 0.0 1003317
11:00+7юз61189100 0.9 1007356
14:00+10з8137277 1.1 1008718
17:00+9зюз7106994 0.0 1009415
20:00+6зюз588123 0.0 1010218
18 мая, вт
вт1823:00+5ююз3484100 0.1 101181
02:00+6юз2283100 0.4 101046
05:00+5юз3593100 0.5 1010141
08:00+5юз4796100 0.7 1011206
11:00+9з567494 0.1 1011844
14:00+9зсз457085 0.2 1009709
17:00+11с2263100 0.0 1005426
20:00+10всв4767100 0.0 1001183